EW5586 Weather Reports


time (UTC)temp
C
wind
direction
speed
KPH
gust
KPH
rain 1hr
cm
rain 24hr
cm
rain mn
cm
humidity
%
barometer
mb
20260510022249 12 230 11.3 24.1 0.10 0.10 0.10 86 1004.8
20260510021743 12 215 16.1 24.1 0.03 0.03 0.03 85 1004.4
20260510021240 12 217 17.7 29.0 0.00 0.00 0.00 82 1003.9
20260510020732 12 188 19.3 33.8 0.00 0.00 0.00 81 1003.7
20260510020226 12 175 20.9 33.8 0.00 0.00 0.00 81 1003.5
20260510015719 13 0 19.3 32.2 0.00 0.00 0.00 81 1003.4
20260510015213 13 175 19.3 29.0 0.00 0.00 0.00 81 1003.3
20260510014201 12 167 17.7 27.4 0.00 0.00 0.00 81 1002.8
20260510013149 13 164 19.3 29.0 0.00 0.00 0.00 80 1003.3
20260510012643 13 178 19.3 29.0 0.00 0.00 0.00 79 1003.4
20260510012143 13 171 20.9 30.6 0.00 0.00 0.00 80 1003.4
20260510011143 13 165 17.7 29.0 0.00 0.00 0.00 80 1003.4
20260510010644 13 167 20.9 35.4 0.00 0.00 0.00 78 1003.3
20260510005643 13 171 20.9 35.4 0.00 0.00 0.00 78 1003.2
20260510005143 13 146 19.3 35.4 0.00 0.00 0.00 78 1003.2
20260510004644 13 184 19.3 32.2 0.00 0.00 0.00 77 1003.1
20260510004143 13 155 17.7 29.0 0.00 0.00 0.00 77 1003.1
20260510002643 13 165 14.5 22.5 0.00 0.00 0.00 77 1003.2
20260510001643 13 170 16.1 27.4 0.00 0.00 0.00 76 1003.1
20260510001139 13 179 14.5 27.4 0.00 0.00 0.00 76 1003.2
20260510000139 13 168 11.3 22.5 0.00 0.00 0.00 76 1003.2
20260509235639 13 157 11.3 19.3 0.00 0.00 0.00 77 1003.4
20260509235139 13 165 11.3 19.3 0.00 0.00 0.00 76 1003.5
20260509234638 13 164 9.7 19.3 0.00 0.00 0.00 76 1003.5
20260509234137 13 162 11.3 19.3 0.00 0.00 0.00 76 1003.6
20260509233637 13 171 11.3 17.7 0.00 0.00 0.00 75 1003.6
20260509232637 13 164 9.7 16.1 0.00 0.00 0.00 75 1003.8
20260509232137 13 162 11.3 19.3 0.00 0.00 0.00 75 1004.0
20260509231637 13 180 12.9 20.9 0.00 0.00 0.00 74 1003.9
20260509231136 13 171 12.9 20.9 0.00 0.00 0.00 76 1003.9
20260509230635 13 167 12.9 20.9 0.00 0.00 0.00 77 1004.0
20260509230135 13 183 14.5 20.9 0.00 0.00 0.00 75 1004.0
20260509225635 13 0 16.1 25.7 0.00 0.00 0.00 74 1004.0
20260509224136 13 173 14.5 25.7 0.00 0.00 0.00 75 1004.0
20260509223635 13 181 12.9 25.7 0.00 0.00 0.00 74 1004.1
20260509223135 13 196 12.9 27.4 0.00 0.00 0.00 75 1004.0
20260509222631 13 142 11.3 27.4 0.00 0.00 0.00 75 1003.9
20260509222132 13 175 8.0 17.7 0.00 0.00 0.00 75 1003.8
20260509221632 13 177 11.3 17.7 0.00 0.00 0.00 74 1003.8
20260509221131 13 162 12.9 19.3 0.00 0.00 0.00 73 1003.7
20260509220631 13 225 14.5 24.1 0.00 0.00 0.00 72 1003.8
20260509220131 13 171 14.5 24.1 0.00 0.00 0.00 71 1003.7
20260509215631 13 181 14.5 25.7 0.00 0.00 0.00 72 1003.7
20260509215131 13 178 14.5 25.7 0.00 0.00 0.00 71 1003.8
20260509214136 13 184 16.1 25.7 0.00 0.00 0.00 70 1003.9
20260509213632 13 179 14.5 20.9 0.00 0.00 0.00 71 1004.1
20260509213131 13 180 16.1 24.1 0.00 0.00 0.00 71 1004.1
20260509212632 14 182 16.1 24.1 0.00 0.00 0.00 70 1004.1
20260509212131 14 170 17.7 32.2 0.00 0.00 0.00 69 1004.1
20260509211632 15 180 19.3 33.8 0.00 0.00 0.00 69 1004.0
20260509211131 14 197 22.5 38.6 0.00 0.00 0.00 69 1004.2
20260509210631 15 226 24.1 41.8 0.00 0.00 0.00 68 1004.2
20260509210131 15 144 20.9 41.8 0.00 0.00 0.00 69 1004.1
20260509205630 14 197 24.1 35.4 0.00 0.00 0.00 69 1004.2
20260509205124 15 178 27.4 46.7 0.00 0.00 0.00 68 1004.1
20260509204623 14 191 25.7 46.7 0.00 0.00 0.00 69 1004.3
20260509204123 14 153 25.7 38.6 0.00 0.00 0.00 69 1004.1
20260509203622 15 181 25.7 38.6 0.00 0.00 0.00 68 1004.3
20260509203123 15 182 24.1 38.6 0.00 0.00 0.00 68 1004.4
20260509202619 15 170 20.9 38.6 0.00 0.00 0.00 67 1004.3
20260509202118 15 199 17.7 32.2 0.00 0.00 0.00 66 1004.1
20260509201619 15 0 12.9 24.1 0.00 0.00 0.00 65 1004.1
20260509200617 15 0 9.7 14.5 0.00 0.00 0.00 60 1004.1
20260509195615 17 0 12.9 19.3 0.00 0.00 0.00 54 1004.2
20260509195115 17 0 12.9 20.9 0.00 0.00 0.00 51 1004.3
20260509194612 17 208 14.5 20.9 0.00 0.00 0.00 49 1004.3
20260509194113 17 0 12.9 22.5 0.00 0.00 0.00 50 1004.4
20260509193613 17 207 14.5 22.5 0.00 0.00 0.00 51 1004.5
20260509193112 17 234 14.5 19.3 0.00 0.00 0.00 52 1004.5
20260509192611 16 187 14.5 22.5 0.00 0.00 0.00 54 1004.4
20260509192110 16 218 16.1 22.5 0.00 0.00 0.00 56 1004.5
20260509191608 15 219 14.5 22.5 0.00 0.00 0.00 60 1004.6
20260509191109 15 205 12.9 19.3 0.00 0.00 0.00 62 1004.6
20260509190609 15 202 12.9 17.7 0.00 0.00 0.00 62 1004.7
20260509190107 15 201 12.9 16.1 0.00 0.00 0.00 63 1004.8
20260509185606 15 220 14.5 19.3 0.00 0.00 0.00 61 1004.9
20260509185105 16 210 16.1 24.1 0.00 0.00 0.00 59 1005.1
20260509184604 16 213 16.1 24.1 0.00 0.00 0.00 57 1005.2
20260509184105 16 229 14.5 19.3 0.00 0.00 0.00 56 1005.3
20260509183601 16 218 16.1 22.5 0.00 0.00 0.00 55 1005.2
20260509183100 16 221 16.1 22.5 0.00 0.00 0.00 55 1005.4
20260509182601 16 229 17.7 22.5 0.00 0.00 0.00 55 1005.4
20260509182101 15 219 17.7 24.1 0.00 0.00 0.00 57 1005.4
20260509181101 15 218 17.7 24.1 0.00 0.00 0.00 56 1005.5
20260509180056 16 208 19.3 24.1 0.00 0.00 0.00 52 1005.5
20260509175557 16 217 16.1 24.1 0.00 0.00 0.00 53 1005.6
20260509175056 16 211 14.5 24.1 0.00 0.00 0.00 53 1005.6
20260509174056 16 211 12.9 22.5 0.00 0.00 0.00 51 1005.7
20260509173557 16 194 11.3 22.5 0.00 0.00 0.00 47 1005.7
20260509173055 16 218 11.3 14.5 0.00 0.00 0.00 47 1005.8
20260509172556 16 0 12.9 17.7 0.00 0.00 0.00 48 1005.7
20260509172055 16 0 11.3 17.7 0.00 0.00 0.00 47 1005.8
20260509171551 16 0 11.3 17.7 0.00 0.00 0.00 49 1005.9
20260509171051 16 0 11.3 22.5 0.00 0.00 0.00 50 1006.1
20260509170549 15 210 11.3 22.5 0.00 0.00 0.00 50 1006.1
20260509165549 16 209 12.9 22.5 0.00 0.00 0.00 50 1006.4
20260509165050 15 202 12.9 19.3 0.00 0.00 0.00 50 1006.5
20260509164547 15 205 11.3 19.3 0.00 0.00 0.00 52 1006.6
20260509164047 15 212 9.7 19.3 0.00 0.00 0.00 53 1006.5
20260509163545 15 0 8.0 14.5 0.00 0.00 0.00 53 1006.6
20260509163044 15 0 6.4 9.7 0.00 0.00 0.00 56 1006.6
20260509162545 15 169 8.0 11.3 0.00 0.00 0.00 54 1006.7
20260509162043 15 0 11.3 16.1 0.00 0.00 0.00 52 1006.8
20260509161543 15 196 14.5 22.5 0.00 0.00 0.00 50 1007.0
20260509161044 15 217 14.5 22.5 0.00 0.00 0.00 49 1007.2
20260509160543 15 223 14.5 19.3 0.00 0.00 0.00 51 1007.1
20260509160043 15 221 14.5 19.3 0.00 0.00 0.00 52 1007.3
20260509155045 15 212 12.9 20.9 0.00 0.00 0.00 52 1007.6
20260509154545 14 217 11.3 20.9 0.00 0.00 0.00 52 1007.6
20260509154042 14 0 9.7 17.7 0.00 0.00 0.00 56 1007.7
20260509153042 -17 0.0 0.0 0.00 0.00 0.00 1007.8
20260509152445 -17 0.0 0.0 0.00 0.00 0.00 1007.9
20260509151943 -17 0.0 0.0 0.00 0.00 0.00 1007.9
20260509151433 -17 0.0 0.0 0.00 0.00 0.00 1008.0
20260509150927 -17 0.0 0.0 0.00 0.00 0.00 1008.1
20260509150345 -17 0.0 0.0 0.00 0.00 0.00 1008.1
20260509145843 -17 0.0 0.0 0.00 0.00 0.00 1008.2
20260509145340 -17 0.0 0.0 0.00 0.00 0.00 1008.2
20260509144747 -17 0.0 0.0 0.00 0.00 0.00 1008.3
20260509144150 -17 0.0 0.0 0.00 0.00 0.00 1008.4
20260509143133 -17 0.0 0.0 0.00 0.00 0.00 1008.3
20260509142546 -17 0.0 0.0 0.00 0.00 0.00 1008.4
20260509141436 -17 0.0 0.0 0.00 0.00 0.00 1008.4
20260509140844 -17 0.0 0.0 0.00 0.00 0.00 1008.6
20260509135150 -17 0.0 0.0 0.00 0.00 0.00 1008.7
20260509134646 -17 0.0 0.0 0.00 0.00 0.00 1008.7
20260509133547 -17 0.0 0.0 0.00 0.00 0.00 1008.8
20260509133046 -17 0.0 0.0 0.00 0.00 0.00 1008.9
20260509132540 -17 0.0 0.0 0.00 0.00 0.00 1009.0
20260509131946 -17 0.0 0.0 0.00 0.00 0.00 1009.0
20260509131436 -17 0.0 0.0 0.00 0.00 0.00 1009.0
20260509130847 -17 0.0 0.0 0.00 0.00 0.00 1009.0
20260509130345 -17 0.0 0.0 0.00 0.00 0.00 1008.9
20260509125843 -17 0.0 0.0 0.00 0.00 0.00 1008.9
20260509125338 -17 0.0 0.0 0.00 0.00 0.00 1008.9
20260509124245 -17 0.0 0.0 0.00 0.00 0.00 1008.9
20260509123151 -17 0.0 0.0 0.00 0.00 0.00 1009.1
20260509121643 -17 0.0 0.0 0.00 0.00 0.00 1009.1
20260509121141 -17 0.0 0.0 0.00 0.00 0.00 1009.2
20260509120044 -17 0.0 0.0 0.00 0.00 0.00 1009.3
20260509115538 -17 0.0 0.0 0.00 0.00 0.00 1009.3
20260509115018 -17 0.0 0.0 0.00 0.00 0.00 1009.4
20260509113845 -17 0.0 0.0 0.00 0.00 0.00 1009.4
20260509112241 -17 0.0 0.0 0.00 0.00 0.00 1009.3
20260509111136 -17 0.0 0.0 0.00 0.00 0.00 1009.4
20260509110051 -17 0.0 0.0 0.00 0.00 0.00 1009.3
20260509105041 -17 0.0 0.0 0.00 0.00 0.00 1009.2
20260509104447 -17 0.0 0.0 0.00 0.00 0.00 1009.1
20260509103941 -17 0.0 0.0 0.00 0.00 0.00 1009.0
20260509103344 -17 0.0 0.0 0.00 0.00 0.00 1009.0
20260509102842 -17 0.0 0.0 0.00 0.00 0.00 1008.9
20260509102340 -17 0.0 0.0 0.00 0.00 0.00 1008.9
20260509101242 -17 0.0 0.0 0.00 0.00 0.00 1008.9
20260509100718 -17 0.0 0.0 0.00 0.00 0.00 1009.0
20260509100136 -17 0.0 0.0 0.00 0.00 0.00 1009.0
20260509095633 -17 0.0 0.0 0.00 0.00 0.00 1008.9
20260509095047 -17 0.0 0.0 0.00 0.00 0.00 1009.0
20260509094540 -17 0.0 0.0 0.00 0.00 0.00 1008.9
20260509094036 -17 0.0 0.0 0.00 0.00 0.00 1009.0
20260509093450 -17 0.0 0.0 0.00 0.00 0.00 1009.1
20260509091850 -17 0.0 0.0 0.00 0.00 0.00 1009.2
20260509090837 -17 0.0 0.0 0.00 0.00 0.00 1009.2
20260509090249 -17 0.0 0.0 0.00 0.00 0.00 1009.2
20260509085734 -17 0.0 0.0 0.00 0.00 0.00 1009.2
20260509085230 5 0.0 0.0 0.00 0.00 0.00 69 1009.2
20260509084728 5 0 9.7 12.9 0.00 0.00 0.00 69 1009.2
20260509084214 5 0 9.7 12.9 0.00 0.00 0.00 69 1009.2
20260509083154 5 198 9.7 14.5 0.00 0.00 0.00 69 1009.2
20260509082654 5 196 9.7 14.5 0.00 0.00 0.00 69 1009.2
20260509082155 5 189 11.3 16.1 0.00 0.00 0.00 69 1009.3
20260509081654 5 0 11.3 19.3 0.00 0.00 0.00 69 1009.3
20260509081150 5 176 12.9 19.3 0.00 0.00 0.00 68 1009.4
20260509080650 5 193 11.3 17.7 0.00 0.00 0.00 69 1009.4
20260509080150 5 188 11.3 16.1 0.00 0.00 0.00 70 1009.4
20260509075650 5 166 11.3 16.1 0.00 0.00 0.00 69 1009.4
20260509075150 5 192 11.3 16.1 0.00 0.00 0.00 69 1009.4
20260509074649 5 166 9.7 16.1 0.00 0.00 0.00 69 1009.4
20260509074150 5 176 9.7 16.1 0.00 0.00 0.00 70 1009.5
20260509073651 5 197 11.3 17.7 0.00 0.00 0.00 69 1009.5
20260509073151 5 182 9.7 17.7 0.00 0.00 0.00 69 1009.5
20260509072150 5 182 8.0 14.5 0.00 0.00 0.00 70 1009.7
20260509071650 6 184 6.4 12.9 0.00 0.00 0.00 70 1009.5
20260509071150 6 0 6.4 9.7 0.00 0.00 0.00 70 1009.5
20260509070650 6 172 6.4 9.7 0.00 0.00 0.00 69 1009.5
20260509070150 6 161 6.4 11.3 0.00 0.00 0.00 68 1009.5
20260509065650 6 166 8.0 12.9 0.00 0.00 0.00 67 1009.5
20260509064649 6 172 6.4 12.9 0.00 0.00 0.00 68 1009.5
20260509064147 6 198 6.4 11.3 0.00 0.00 0.00 68 1009.7
20260509063646 6 173 6.4 9.7 0.00 0.00 0.00 68 1009.8
20260509063144 6 182 6.4 9.7 0.00 0.00 0.00 67 1009.8
20260509062644 6 167 6.4 9.7 0.00 0.00 0.00 67 1009.8
20260509062145 6 0 6.4 11.3 0.00 0.00 0.00 69 1009.8
20260509061644 6 166 6.4 11.3 0.00 0.00 0.00 70 1009.8
20260509060643 6 168 8.0 11.3 0.00 0.00 0.00 72 1009.9
20260509060142 6 169 8.0 12.9 0.00 0.00 0.00 73 1010.0
20260509055642 6 186 8.0 12.9 0.00 0.00 0.00 74 1010.0
20260509055140 6 200 9.7 17.7 0.00 0.00 0.00 73 1010.2
20260509054640 6 200 9.7 17.7 0.00 0.00 0.00 73 1010.2
20260509054139 6 0 8.0 12.9 0.00 0.00 0.00 73 1010.2
20260509053637 6 205 6.4 11.3 0.00 0.00 0.00 73 1010.2
20260509053136 6 175 6.4 11.3 0.00 0.00 0.00 73 1010.2
20260509052635 6 167 6.4 9.7 0.00 0.00 0.00 73 1010.2
20260509051634 6 0 8.0 14.5 0.00 0.00 0.00 73 1010.2
20260509051130 7 178 11.3 16.1 0.00 0.00 0.00 73 1010.2
20260509050630 7 214 12.9 16.1 0.00 0.00 0.00 70 1010.2
20260509045130 7 188 12.9 16.1 0.00 0.00 0.00 72 1010.4
20260509044630 7 177 11.3 16.1 0.00 0.00 0.00 73 1010.4
20260509044130 7 194 11.3 14.5 0.00 0.00 0.00 74 1010.4
20260509043630 7 193 9.7 14.5 0.00 0.00 0.00 74 1010.4
20260509043130 7 195 9.7 14.5 0.00 0.00 0.00 75 1010.3
20260509042628 7 205 9.7 12.9 0.00 0.00 0.00 74 1010.4
20260509041624 7 200 9.7 14.5 0.00 0.00 0.00 74 1010.3
20260509041125 7 0 9.7 14.5 0.00 0.00 0.00 74 1010.3
20260509040624 7 193 11.3 14.5 0.00 0.00 0.00 74 1010.2
20260509040124 7 212 9.7 14.5 0.00 0.00 0.00 74 1010.2
20260509035623 7 201 9.7 12.9 0.00 0.00 0.00 74 1010.2
20260509034618 7 196 8.0 12.9 0.00 0.00 0.00 77 1010.3
20260509033617 7 0 9.7 16.1 0.00 0.00 0.00 78 1010.3
20260509033118 7 0 9.7 14.5 0.00 0.00 0.00 79 1010.3
20260509032617 7 0 9.7 16.1 0.00 0.00 0.00 79 1010.3
20260509032115 7 0 9.7 16.1 0.00 0.00 0.00 78 1010.3
20260509031116 7 230 12.9 17.7 0.00 0.00 0.00 77 1010.4
20260509030618 7 198 12.9 17.7 0.00 0.00 0.00 76 1010.4
20260509025613 7 201 12.9 17.7 0.00 0.00 0.00 76 1010.5
20260509025114 7 197 11.3 16.1 0.00 0.00 0.00 77 1010.5
20260509024618 7 0 11.3 17.7 0.00 0.00 0.00 77 1010.5
20260509024113 7 219 11.3 17.7 0.00 0.00 0.00 77 1010.6
20260509023614 7 199 11.3 16.1 0.00 0.00 0.00 77 1010.6
20260509023113 7 186 8.0 12.9 0.00 0.00 0.00 78 1010.5